TimeMDT,TemperatureF,Dew PointF,Humidity,Sea Level PressureIn,VisibilityMPH,Wind Direction,Wind SpeedMPH,Gust SpeedMPH,PrecipitationIn,Events,Conditions,WindDirDegrees,DateUTC
12:56 AM,34.0,16.0,48,30.26,10.0,ESE,9.2,-,N/A,,Clear,120,2013-05-04 06:56:00
1:56 AM,32.0,17.1,54,30.27,10.0,SE,8.1,-,N/A,,Clear,140,2013-05-04 07:56:00
2:56 AM,30.0,17.1,59,30.28,10.0,SE,8.1,-,N/A,,Clear,140,2013-05-04 08:56:00
3:56 AM,28.0,17.1,63,30.28,10.0,SE,4.6,-,N/A,,Clear,130,2013-05-04 09:56:00
4:56 AM,28.0,16.0,61,30.29,10.0,Calm,Calm,-,N/A,,Clear,0,2013-05-04 10:56:00
5:56 AM,27.0,17.1,66,30.30,10.0,ENE,5.8,-,N/A,,Clear,70,2013-05-04 11:56:00
6:56 AM,33.1,19.9,59,30.32,10.0,East,3.5,-,N/A,,Clear,80,2013-05-04 12:56:00
7:56 AM,39.9,21.9,49,30.32,10.0,East,5.8,-,N/A,,Clear,90,2013-05-04 13:56:00
8:56 AM,45.0,21.0,39,30.33,10.0,East,5.8,-,N/A,,Clear,90,2013-05-04 14:56:00
9:56 AM,48.9,18.0,29,30.33,10.0,Variable,4.6,-,N/A,,Clear,0,2013-05-04 15:56:00
10:56 AM,51.1,14.0,23,30.33,10.0,Variable,5.8,-,N/A,,Clear,0,2013-05-04 16:56:00
11:56 AM,54.0,15.1,22,30.33,10.0,ENE,6.9,-,N/A,,Clear,60,2013-05-04 17:56:00
12:56 PM,55.0,15.1,21,30.31,10.0,NE,6.9,-,N/A,,Clear,50,2013-05-04 18:56:00
1:56 PM,57.0,15.1,19,30.30,10.0,ENE,6.9,-,N/A,,Clear,70,2013-05-04 19:56:00
2:56 PM,57.9,17.1,20,30.29,10.0,East,8.1,-,N/A,,Clear,80,2013-05-04 20:56:00
3:56 PM,59.0,17.1,20,30.27,10.0,NE,4.6,-,N/A,,Clear,40,2013-05-04 21:56:00
4:56 PM,57.9,15.1,19,30.28,10.0,NNE,13.8,20.7,N/A,,Clear,30,2013-05-04 22:56:00
5:56 PM,57.0,14.0,18,30.28,10.0,ENE,12.7,-,N/A,,Clear,60,2013-05-04 23:56:00
6:56 PM,55.9,17.1,22,30.28,10.0,NE,10.4,-,N/A,,Clear,40,2013-05-05 00:56:00
7:56 PM,50.0,18.0,28,30.28,10.0,ENE,8.1,-,N/A,,Clear,60,2013-05-05 01:56:00
8:56 PM,44.1,18.0,35,30.30,10.0,ENE,5.8,-,N/A,,Clear,70,2013-05-05 02:56:00
9:56 PM,43.0,18.0,37,30.30,10.0,East,3.5,-,N/A,,Clear,90,2013-05-05 03:56:00
10:56 PM,42.1,18.0,38,30.30,10.0,ESE,4.6,-,N/A,,Clear,110,2013-05-05 04:56:00
11:56 PM,36.0,19.0,50,30.31,10.0,SSW,3.5,-,N/A,,Clear,200,2013-05-05 05:56:00